Location: Madrid
(40.4000°N, 3.6830°W)
Time: 00:46:12
(UTC+02:00)

ISS - Pass Details

Date: 13 July 2019
Orbit: 409 x 418 km, 51.6° (Epoch: 22 July)

Event Time Altitude Azimuth Distance (km) Brightness Sun altitude
Rises 05:33:04 0° 312° (NW) 2,345 0.0 -13.3°
Reaches altitude 10° 05:35:44 10° 335° (NNW) 1,480 -0.7 -12.9°
Maximum altitude 05:37:54 16° 16° (NNE) 1,164 -0.6 -12.6°
Drops below altitude 10° 05:40:04 10° 57° (ENE) 1,476 0.5 -12.3°
Sets 05:42:44 0° 80° (E) 2,335 1.1 -12.0°
